Flag for Norway Weather past 2 weeks in Fagernes, Norway

Now
36 °F

Chilly.


Feels Like: 34 °F
Forecast: 40 / 47 °F
Wind: 3 mph from Southeast

Location: Fagernes

Current Time: Oct 23, 2014 at 2:03:26 AM

Latest Report: Oct 23, 2014 at 1:00 AM


Visibility: N/A

Pressure: 30.05 "Hg

Humidity: 91%

Dew point: 34 °F

Location of FagernesLocation

Historic Weather in Fagernes — Graph

°F

Fagernes temperature yesterday

Maximum temperature yesterday: 41 °F (at 12:00 AM)
Minimum temperature yesterday: 37 °F (at 10:00 PM)
Average temperature yesterday: 40 °F

Past Weeks' High & Low Weather Summary

 TemperatureHumidityPressure
High51 °F (Oct 10, 4:00 PM)96% (Oct 13, 4:00 AM)30.16 "Hg (Oct 13, 4:00 AM)
Low34 °F (Oct 13, 5:00 AM)72% (Oct 15, 2:00 PM)29.29 "Hg (Oct 20, 1:00 AM)
Average40 °F90%29.78 "Hg
* Reported Midnight between Oct 7 and Oct 8 — Midnight between Oct 22 and Oct 23, Fagernes, Weather by CustomWeather, © 2014

Note: Actual official high and low records may vary slightly from our data, if they occured in-between our weather recording intervals... More about our weather records

Advertising

Fagernes weather history for previous 24 hours

 ConditionsComfort  
Time TempWeatherWind HumidityBarometerVisibility
12:00 AM
Oct 23
37 °FChilly.3 mph90%30.04 "HgN/A
11:00 PM
Oct 22
37 °FChilly.3 mph89%30.04 "HgN/A
10:00 PM37 °FChilly.3 mph91%30.03 "HgN/A
9:00 PM38 °FChilly.3 mph89%30.03 "HgN/A
8:00 PM38 °FDrizzle. Low clouds.1 mph90%30.01 "Hg2 mi
7:00 PM38 °FChilly.2 mph89%30.00 "HgN/A
6:00 PM39 °FChilly.2 mph89%29.99 "HgN/A
5:00 PM39 °FRain. Low clouds.3 mph89%29.97 "Hg2 mi
4:00 PM40 °FQuite cool.2 mph90%29.96 "HgN/A
3:00 PM41 °FQuite cool.3 mph90%29.95 "HgN/A
2:00 PM41 °FQuite cool.2 mph92%29.93 "HgN/A
1:00 PM41 °FQuite cool.2 mph92%29.92 "HgN/A
12:00 PM41 °FQuite cool.1 mph90%29.90 "HgN/A
11:00 AM40 °FQuite cool.No wind92%29.88 "HgN/A
10:00 AM39 °FChilly.2 mph92%29.86 "HgN/A
9:00 AM39 °FChilly.2 mph91%29.84 "HgN/A
8:00 AM39 °FDrizzle. Overcast.2 mph91%29.81 "Hg6 mi
7:00 AM40 °FChilly.2 mph91%29.78 "HgN/A
6:00 AM40 °FChilly.1 mph92%29.75 "HgN/A
5:00 AM40 °FChilly.1 mph92%29.73 "HgN/A
4:00 AM40 °FChilly.1 mph92%29.71 "HgN/A
3:00 AM40 °FQuite cool.No wind92%29.68 "HgN/A
2:00 AM40 °FLight rain. Overcast.1 mph90%29.65 "Hg2 mi
Weather by CustomWeather, © 2014

See weather overviewHow to use our weather pages